Regional Weather Roundup
Issued by NWS Midland/Odessa, TX

Skip options and go directly to product.
Home | Oldest Version | Next Version | Current Version | All | Text Only | Save Text | Print | Product List | Glossary On

Skip product version selection by date and time.   
236
ASUS44 KMAF 261101
RWRMAF
MIDLAND AREA WEATHER ROUNDUP
NATIONAL WEATHER SERVICE MIDLAND TX
500 AM CST THU FEB 26 2015

...IN SOUTHWEST TEXAS AND SOUTHEAST NEW MEXICO...

CITY           SKY/WX    TMP DP  RH WIND       PRES   REMARKS
ALPINE         CLEAR     40  27  58 NE7       30.05R WCI  36
ANDREWS        FAIR      39  33  78 NE9       30.01R WCI  33
ARTESIA        CLOUDY    43  37  81 N16       30.05R WCI  35
BIG SPRING     PTCLDY    44  32  63 NE25      30.02R WCI  34
CARLSBAD       CLEAR     38  32  79 CALM      30.01R
DRYDEN           N/A     48  29  47 N13       29.88R
FORT STOCKTON  CLEAR     40  32  73 N6        29.97R WCI  36
GUAD PASS        N/A    N/A N/A N/A MISG        N/A
HOBBS          MOCLDY    41  36  81 NE16G22   30.03R WCI  33
MARFA          CLEAR     37  25  60 NE12      29.99R WCI  30
MIDLAND AIRPK  PTCLDY    44  33  67 NE13      30.01R WCI  37
MIDLAND INTL   CLEAR     43  33  68 NE18      30.00R WCI  35
ODESSA         PTCLDY    39  33  79 NE14      30.00R WCI  31
PECOS          CLEAR     43  32  64 NE3       30.00R
PRESIDIO       FAIR      46  26  45 N7        29.92R
SEMINOLE       CLOUDY    41  33  73 NE21G28   30.06R WCI  31
SNYDER         CLOUDY    39  27  61 N21G30    30.03R WCI  29
WINK           CLEAR     42  32  67 N12       29.98R WCI  36
$$
...OTHER STATIONS IN TEXAS...

CITY           SKY/WX    TMP DP  RH WIND       PRES   REMARKS
ABILENE        CLOUDY    39  31  72 N20       30.05R WCI  29
AMARILLO       CLOUDY    24  19  81 N18G28    30.14R WCI  10
AUSTIN         PTCLDY    29  28  96 CALM      30.00R
BROWNSVILLE    CLEAR     43  41  93 CALM      29.93S
CORPUS CHRISTI PTCLDY    41  39  93 CALM      29.95R
DALLAS FTW     MOCLDY    35  33  92 N9        30.04R FOG     WCI  28
DEL RIO        CLEAR     47  30  51 E10       29.88R
EL PASO        PTCLDY    40  24  53 E8        29.97R WCI  34
HOUSTON INT    CLEAR     32  30  92 CALM      29.99R
LUBBOCK        LGT SNOW  31  30  96 NE22      30.07R FOG     WCI  18
SAN ANGELO     MOCLDY    43  35  73 N12       29.99R WCI  37
SAN ANTONIO    CLEAR     38  31  76 NW3       29.98R
WACO           CLEAR     28  27  96 N3        30.01R FOG
WICHITA FALLS  NOT AVBL
$$
...OTHER LOCATIONS IN NEW MEXICO...

CITY           SKY/WX    TMP DP  RH WIND       PRES   REMARKS
ALAMAGORDO     PTCLDY    41  19  42 MISG      29.97S
ALBUQUERQUE    PTCLDY    33  19  56 CALM      30.00R
CANNON AFB     LGT SNOW  29  26  88 NE20      30.07R WCI  16
CLOVIS         CLOUDY    28  25  86 NE21      30.07S WCI  15
HOLLOMAN AFB   PTCLDY    31  21  67 NW1       29.96R
ROSWELL        CLOUDY    40  34  79 N18       30.05R WCI  31
RUIDOSO        CLOUDY    28  27  93 CALM      30.04R
SANTA FE       CLOUDY    31  25  78 S10       29.99S WCI  22
TRUTH OR CONSE MOCLDY    41  28  60 NW9       29.98R WCI  35
TUCUMCARI      CLOUDY    32  27  81 E12       30.11R WCI  23
$$

USA.gov is the U.S. government's official web portal to all federal, state and local government web resources and services.